Change the Weather History Date:

Sunday, March 3, 2013

  Actual Average Record
Temperature  
Mean Temperature 24 °F -  
Max Temperature 30 °F 33 °F 53 °F (1983)
Min Temperature 19 °F 10 °F -22 °F (2014)
Degree Days  
Heating Degree Days 40    
Moisture  
Dew Point 9 °F    
Average Humidity 51    
Maximum Humidity 68    
Minimum Humidity 34    
Precipitation  
Precipitation 0.00 in - - ()
Sea Level Pressure  
Sea Level Pressure 30.02 in    
Wind  
Wind Speed 7 mph (ESE)    
Max Wind Speed 15 mph    
Max Gust Speed 20 mph    
Visibility 10 miles    
Events      
Averages and records for this station are not official NWS values.
T = Trace of Precipitation, MM = Missing Value Source: NWS Daily Summary

Daily Weather History Graph

Daily Weather History Graph

Search for Another Location

Airport or City:

Trip Planner

Search our weather history database for the weather conditions in past years. The results will help you decide how hot, cold, wet, or windy it might be!

Date:

Astronomy

Mar. 03, 2013 Rise Set
Actual Time 6:52 AM CST 6:07 PM CST
Civil Twilight 6:22 AM CST 6:37 PM CST
Nautical Twilight 5:47 AM CST 7:11 PM CST
Astronomical Twilight 5:12 AM CST 7:46 PM CST
Moon 12:06 AM CST (3/3) 9:46 AM CST (3/3)
Length of Visible Light 12h 14m
Length of Day
11h 15m
Waning Gibbous, 63% of the Moon is Illuminated
Mar 3
Waning Gibbous
Mar 4
Last Quarter
Mar 11
New
Mar 19
First Quarter
Mar 27
Full

Hourly Weather History & Observations

Time (CST) Temp. Windchill Dew Point Humidity Pressure Visibility Wind Dir Wind Speed Gust Speed Precip Events Conditions
12:15 AM 23.0 °F 18.4 °F 12.2 °F 63% 30.11 in 10.0 mi SE 3.5 mph - N/A   Overcast
12:35 AM 23.0 °F - 12.2 °F 63% 30.11 in 10.0 mi Calm Calm - N/A   Overcast
12:55 AM 23.0 °F 17.0 °F 12.2 °F 63% 30.10 in 10.0 mi ESE 4.6 mph - N/A   Overcast
1:15 AM 23.0 °F 18.4 °F 12.2 °F 63% 30.10 in 10.0 mi East 3.5 mph - N/A   Overcast
1:35 AM 23.0 °F 18.4 °F 12.2 °F 63% 30.10 in 10.0 mi East 3.5 mph - N/A   Overcast
1:55 AM 23.0 °F 15.8 °F 12.2 °F 63% 30.10 in 10.0 mi ESE 5.8 mph - N/A   Overcast
2:15 AM 21.2 °F 14.9 °F 12.2 °F 68% 30.09 in 10.0 mi SE 4.6 mph - N/A   Overcast
2:35 AM 21.2 °F 13.6 °F 12.2 °F 68% 30.09 in 10.0 mi SE 5.8 mph - N/A   Overcast
2:54 AM 21.2 °F 14.9 °F 12.2 °F 68% 30.09 in 10.0 mi ESE 4.6 mph - N/A   Overcast
3:15 AM 21.2 °F 13.6 °F 12.2 °F 68% 30.08 in 10.0 mi ESE 5.8 mph - N/A   Overcast
3:35 AM 21.2 °F 13.6 °F 12.2 °F 68% 30.07 in 10.0 mi ESE 5.8 mph - N/A   Overcast
3:54 AM 21.2 °F 14.9 °F 12.2 °F 68% 30.07 in 10.0 mi ESE 4.6 mph - N/A   Overcast
4:15 AM 21.2 °F 14.9 °F 12.2 °F 68% 30.06 in 10.0 mi ESE 4.6 mph - N/A   Overcast
4:35 AM 21.2 °F 13.6 °F 10.4 °F 63% 30.06 in 10.0 mi ESE 5.8 mph - N/A   Overcast
4:54 AM 21.2 °F 16.4 °F 10.4 °F 63% 30.06 in 10.0 mi ESE 3.5 mph - N/A   Mostly Cloudy
5:15 AM 21.2 °F 16.4 °F 10.4 °F 63% 30.06 in 10.0 mi ESE 3.5 mph - N/A   Mostly Cloudy
5:35 AM 19.4 °F 14.3 °F 10.4 °F 68% 30.07 in 10.0 mi East 3.5 mph - N/A   Overcast
5:55 AM 19.4 °F 14.3 °F 10.4 °F 68% 30.07 in 10.0 mi East 3.5 mph - N/A   Overcast
6:15 AM 19.4 °F 12.8 °F 8.6 °F 63% 30.07 in 10.0 mi ESE 4.6 mph - N/A   Overcast
6:34 AM 19.4 °F 10.4 °F 8.6 °F 63% 30.07 in 10.0 mi East 6.9 mph - N/A   Scattered Clouds
6:55 AM 19.4 °F 11.5 °F 6.8 °F 58% 30.07 in 10.0 mi ESE 5.8 mph - N/A   Mostly Cloudy
7:15 AM 19.4 °F 10.4 °F 6.8 °F 58% 30.07 in 10.0 mi ESE 6.9 mph - N/A   Overcast
7:34 AM 19.4 °F 11.5 °F 8.6 °F 63% 30.07 in 10.0 mi ESE 5.8 mph - N/A   Overcast
7:55 AM 19.4 °F 11.5 °F 8.6 °F 63% 30.07 in 10.0 mi ESE 5.8 mph - N/A   Overcast
8:15 AM 19.4 °F 9.5 °F 8.6 °F 63% 30.06 in 10.0 mi ESE 8.1 mph - N/A   Overcast
8:34 AM 21.2 °F 10.9 °F 8.6 °F 58% 30.06 in 10.0 mi ESE 9.2 mph - N/A   Overcast
8:55 AM 21.2 °F 11.7 °F 8.6 °F 58% 30.06 in 10.0 mi ESE 8.1 mph - N/A   Scattered Clouds
9:15 AM 23.0 °F 13.1 °F 8.6 °F 54% 30.06 in 10.0 mi ESE 9.2 mph - N/A   Mostly Cloudy
9:34 AM 23.0 °F 13.9 °F 8.6 °F 54% 30.06 in 10.0 mi SE 8.1 mph - N/A   Mostly Cloudy
9:55 AM 23.0 °F 13.1 °F 8.6 °F 54% 30.04 in 10.0 mi SE 9.2 mph - N/A   Clear
10:15 AM 23.0 °F 10.6 °F 10.4 °F 59% 30.04 in 10.0 mi SE 13.8 mph 18.4 mph N/A   Scattered Clouds
10:34 AM 24.8 °F 12.4 °F 10.4 °F 54% 30.04 in 10.0 mi SE 15.0 mph - N/A   Mostly Cloudy
10:55 AM 26.6 °F 15.2 °F 10.4 °F 51% 30.04 in 10.0 mi SE 13.8 mph 18.4 mph N/A   Overcast
11:14 AM 26.6 °F 14.7 °F 10.4 °F 51% 30.04 in 10.0 mi SE 15.0 mph - N/A   Mostly Cloudy
11:35 AM 26.6 °F 14.7 °F 8.6 °F 47% 30.03 in 10.0 mi SE 15.0 mph - N/A   Scattered Clouds
11:55 AM 26.6 °F 16.2 °F 8.6 °F 47% 30.02 in 10.0 mi SE 11.5 mph 18.4 mph N/A   Scattered Clouds
12:14 PM 28.4 °F 18.5 °F 10.4 °F 47% 30.02 in 10.0 mi ESE 11.5 mph - N/A   Scattered Clouds
12:35 PM 28.4 °F 18.0 °F 10.4 °F 47% 30.01 in 10.0 mi SE 12.7 mph 17.3 mph N/A   Scattered Clouds
12:55 PM 28.4 °F 18.0 °F 10.4 °F 47% 30.00 in 10.0 mi ESE 12.7 mph 18.4 mph N/A   Mostly Cloudy
1:14 PM 30.2 °F 21.3 °F 8.6 °F 40% 29.99 in 10.0 mi ESE 10.4 mph - N/A   Overcast
1:35 PM 30.2 °F 19.8 °F 8.6 °F 40% 29.99 in 10.0 mi ESE 13.8 mph - N/A   Mostly Cloudy
1:55 PM 30.2 °F 19.8 °F 8.6 °F 40% 29.97 in 10.0 mi SE 13.8 mph 18.4 mph N/A   Mostly Cloudy
2:14 PM 30.2 °F 20.2 °F 8.6 °F 40% 29.97 in 10.0 mi ESE 12.7 mph 17.3 mph N/A   Mostly Cloudy
2:35 PM 30.2 °F 22.6 °F 8.6 °F 40% 29.97 in 10.0 mi ESE 8.1 mph - N/A   Overcast
2:55 PM 30.2 °F 20.2 °F 8.6 °F 40% 29.97 in 10.0 mi ESE 12.7 mph - N/A   Overcast
3:14 PM 30.2 °F 21.9 °F 8.6 °F 40% 29.96 in 10.0 mi ESE 9.2 mph - N/A   Overcast
3:35 PM 30.2 °F 21.3 °F 10.4 °F 44% 29.96 in 10.0 mi East 10.4 mph 16.1 mph N/A   Overcast
3:54 PM 30.2 °F 21.3 °F 10.4 °F 44% 29.96 in 10.0 mi ESE 10.4 mph 16.1 mph N/A   Overcast
4:15 PM 30.2 °F 23.4 °F 10.4 °F 44% 29.96 in 10.0 mi ESE 6.9 mph - N/A   Overcast
4:35 PM 30.2 °F 21.3 °F 8.6 °F 40% 29.96 in 10.0 mi ESE 10.4 mph 16.1 mph N/A   Overcast
4:55 PM 30.2 °F 20.8 °F 10.4 °F 44% 29.96 in 10.0 mi ESE 11.5 mph 16.1 mph N/A   Overcast
5:15 PM 30.2 °F 21.9 °F 10.4 °F 44% 29.96 in 10.0 mi East 9.2 mph 16.1 mph N/A   Overcast
5:34 PM 30.2 °F 21.9 °F 10.4 °F 44% 29.96 in 10.0 mi East 9.2 mph - N/A   Overcast
5:55 PM 28.4 °F 19.1 °F 8.6 °F 43% 29.96 in 10.0 mi East 10.4 mph - N/A   Overcast
6:35 PM 28.4 °F 19.7 °F 5.0 °F 37% 29.97 in 10.0 mi ESE 9.2 mph - N/A   Overcast
6:55 PM 28.4 °F 22.2 °F 5.0 °F 37% 29.97 in 10.0 mi ESE 5.8 mph 16.1 mph N/A   Overcast
7:15 PM 28.4 °F 19.7 °F 3.2 °F 34% 29.96 in 10.0 mi ESE 9.2 mph - N/A   Overcast
7:35 PM 28.4 °F 18.0 °F 3.2 °F 34% 29.96 in 10.0 mi ESE 12.7 mph 19.6 mph N/A   Overcast
7:55 PM 28.4 °F 19.7 °F 3.2 °F 34% 29.96 in 10.0 mi ESE 9.2 mph 19.6 mph N/A   Overcast
8:15 PM 28.4 °F 19.1 °F 3.2 °F 34% 29.96 in 10.0 mi ESE 10.4 mph 16.1 mph N/A   Overcast
8:35 PM 28.4 °F 19.1 °F 3.2 °F 34% 29.96 in 10.0 mi ESE 10.4 mph - N/A   Overcast
8:55 PM 28.4 °F 18.5 °F 3.2 °F 34% 29.96 in 10.0 mi ESE 11.5 mph 16.1 mph N/A   Overcast
9:15 PM 26.6 °F 17.5 °F 5.0 °F 40% 29.95 in 10.0 mi ESE 9.2 mph 17.3 mph N/A   Overcast
9:35 PM 26.6 °F 16.8 °F 5.0 °F 40% 29.95 in 10.0 mi ESE 10.4 mph 17.3 mph N/A   Overcast
9:55 PM 26.6 °F 16.8 °F 3.2 °F 37% 29.95 in 10.0 mi ESE 10.4 mph 17.3 mph N/A   Overcast
10:15 PM 26.6 °F 15.7 °F 3.2 °F 37% 29.95 in 10.0 mi ESE 12.7 mph 16.1 mph N/A   Overcast
10:34 PM 26.6 °F 16.8 °F 3.2 °F 37% 29.95 in 10.0 mi ESE 10.4 mph - N/A   Overcast
10:55 PM 26.6 °F 16.8 °F 3.2 °F 37% 29.95 in 10.0 mi ESE 10.4 mph - N/A   Overcast
11:15 PM 26.6 °F 16.8 °F 3.2 °F 37% 29.95 in 10.0 mi ESE 10.4 mph - N/A   Overcast
11:34 PM 26.6 °F 18.2 °F 5.0 °F 40% 29.95 in 10.0 mi ESE 8.1 mph - N/A   Overcast
11:55 PM 26.6 °F 18.2 °F 5.0 °F 40% 29.96 in 10.0 mi ESE 8.1 mph - N/A   Overcast